Location: Brantley
(31.5822°N, 86.2569°W)
Time: 07:18:20
(UTC+00:00)

Courier 1B Rocket - Pass Details

Date: 16 February 2026
Orbit: 920 x 1201 km, 28.2° (Epoch: 9 March)

Event Time Altitude Azimuth Distance (km) Brightness Sun altitude
Rises 07:47:05 0° 268° (W) 3,838 - -58.6°
Reaches altitude 10° 07:50:29 10° 253° (WSW) 2,933 - -57.9°
Maximum altitude 07:55:38 21° 207° (SSW) 2,294 - -57.0°
Drops below altitude 10° 08:00:58 10° 162° (SSE) 3,060 - -56.0°
Sets 08:04:39 0° 147° (SSE) 4,052 - -55.3°
